Simultaneous Nadir Overpasses (SNOs) Predictions

Prediction of SNOs between METOP-B and NOAA-19 Satellite Orbit:

Table of predicted SNOs for the next 14.0 days since TLE Epoch: 12/11/2021
Index Date (METOP-B) Time (METOP-B) Lat,Lon (METOP-B) SZA (METOP-B ) Date (NOAA-19) Time (NOAA-19) Lat,Lon (NOAA-19) SZA (NOAA-19 ) Distance(km) Time Diff (sec)
1 12/17/2021 16:18:22 80.73, -33.11 105.43 12/17/2021 16:17:13 80.72, -33.26 105.38 3.22 69
2 12/17/2021 17:09:03 -80.73, 134.12 74.59 12/17/2021 17:08:18 -80.72, 134.03 74.62 2.16 45
3 12/17/2021 17:59:44 80.72, -58.60 105.41 12/17/2021 17:59:13 80.72, -58.70 105.38 2.00 31
4 12/17/2021 18:50:25 -80.72, 108.63 74.61 12/17/2021 18:50:18 -80.71, 108.59 74.62 0.98 7
5 12/17/2021 19:41:06 80.71, -84.09 105.39 12/17/2021 19:41:13 80.71, -84.14 105.39 0.84 7
6 12/17/2021 20:31:47 -80.71, 83.14 74.63 12/17/2021 20:32:18 -80.71, 83.15 74.61 0.30 31
7 12/17/2021 21:22:28 80.71,-109.58 105.37 12/17/2021 21:23:13 80.71,-109.58 105.39 0.68 45



Historial Predications of SNOs between METOP-B and NOAA-19
